Location: Baller�as
(41.9020°N, 0.1554°W)
Time: 12:28:37
(UTC+00:00)

Cosmos 1703 Rocket - Pass Details

Date: 10 August 2020
Orbit: 605 x 634 km, 82.5° (Epoch: 21 September)

Event Time Altitude Azimuth Distance (km) Brightness Sun altitude
Rises 21:15:41 0° 359° (N) 2,883 7.7 -20.7°
Reaches altitude 10° 21:18:02 10° 7° (N) 1,970 6.6 -21.0°
Enters shadow 21:22:01 40° 72° (ENE) 904 4.1 -21.5°
